TimeCST,TemperatureF,Dew PointF,Humidity,Sea Level PressureIn,VisibilityMPH,Wind Direction,Wind SpeedMPH,Gust SpeedMPH,PrecipitationIn,Events,Conditions,WindDirDegrees,DateUTC
12:13 AM,19.4,17.6,93,29.97,10.0,West,3.5,-,N/A,,Clear,260,2012-12-07 06:13:00
12:33 AM,19.4,17.6,93,29.97,10.0,Calm,Calm,-,N/A,,Clear,0,2012-12-07 06:33:00
12:54 AM,19.4,17.6,93,29.97,10.0,Calm,Calm,-,N/A,,Clear,0,2012-12-07 06:54:00
1:13 AM,19.4,17.6,93,29.97,10.0,WSW,3.5,-,N/A,,Clear,240,2012-12-07 07:13:00
1:33 AM,19.4,17.6,93,29.98,10.0,WSW,4.6,-,N/A,,Clear,250,2012-12-07 07:33:00
1:54 AM,19.4,17.6,93,29.98,10.0,West,4.6,-,N/A,,Clear,270,2012-12-07 07:54:00
2:13 AM,19.4,17.6,93,29.98,10.0,West,4.6,-,N/A,,Clear,280,2012-12-07 08:13:00
2:34 AM,21.2,19.4,93,29.98,10.0,NW,4.6,-,N/A,,Clear,310,2012-12-07 08:34:00
2:53 AM,19.4,17.6,93,29.97,10.0,NW,5.8,-,N/A,,Clear,310,2012-12-07 08:53:00
3:13 AM,21.2,19.4,93,29.97,10.0,WNW,4.6,-,N/A,,Clear,300,2012-12-07 09:13:00
3:34 AM,19.4,17.6,93,29.97,10.0,WNW,3.5,-,N/A,,Clear,290,2012-12-07 09:34:00
3:53 AM,19.4,17.6,93,29.97,10.0,West,4.6,-,N/A,,Clear,280,2012-12-07 09:53:00
4:13 AM,17.6,17.6,100,29.97,10.0,West,3.5,-,N/A,,Clear,280,2012-12-07 10:13:00
4:34 AM,17.6,17.6,100,29.97,10.0,WSW,3.5,-,N/A,,Clear,240,2012-12-07 10:34:00
4:53 AM,17.6,17.6,100,29.98,10.0,Calm,Calm,-,N/A,,Clear,0,2012-12-07 10:53:00
5:13 AM,17.6,15.8,93,29.98,10.0,Calm,Calm,-,N/A,,Clear,0,2012-12-07 11:13:00
5:34 AM,17.6,15.8,93,29.98,10.0,Calm,Calm,-,N/A,,Clear,0,2012-12-07 11:34:00
5:53 AM,17.6,17.6,100,29.97,7.0,Calm,Calm,-,N/A,,Clear,0,2012-12-07 11:53:00
6:13 AM,17.6,17.6,100,29.97,10.0,Calm,Calm,-,N/A,,Clear,0,2012-12-07 12:13:00
6:34 AM,17.6,15.8,93,29.97,7.0,NW,3.5,-,N/A,,Clear,320,2012-12-07 12:34:00
6:53 AM,15.8,15.8,100,29.98,7.0,NW,4.6,-,N/A,,Clear,310,2012-12-07 12:53:00
7:13 AM,17.6,15.8,93,29.99,7.0,NW,3.5,-,N/A,,Clear,320,2012-12-07 13:13:00
7:34 AM,17.6,17.6,100,30.00,10.0,Calm,Calm,-,N/A,,Clear,0,2012-12-07 13:34:00
7:53 AM,17.6,17.6,100,30.00,10.0,Calm,Calm,-,N/A,,Clear,0,2012-12-07 13:53:00
8:13 AM,17.6,17.6,100,30.00,7.0,Calm,Calm,-,N/A,,Clear,0,2012-12-07 14:13:00
8:34 AM,19.4,17.6,93,30.02,7.0,WNW,3.5,-,N/A,,Clear,300,2012-12-07 14:34:00
8:53 AM,19.4,17.6,93,30.03,10.0,WNW,5.8,-,N/A,,Clear,300,2012-12-07 14:53:00
9:13 AM,19.4,17.6,93,30.03,10.0,NNW,5.8,-,N/A,,Clear,330,2012-12-07 15:13:00
9:34 AM,19.4,17.6,93,30.02,10.0,NNW,4.6,-,N/A,,Clear,330,2012-12-07 15:34:00
9:53 AM,19.4,15.8,86,30.03,10.0,NNW,3.5,-,N/A,,Clear,330,2012-12-07 15:53:00
10:14 AM,19.4,15.8,86,30.04,10.0,NW,4.6,-,N/A,,Clear,310,2012-12-07 16:14:00
10:33 AM,19.4,15.8,86,30.04,10.0,NW,5.8,-,N/A,,Clear,320,2012-12-07 16:33:00
10:53 AM,19.4,15.8,86,30.04,10.0,NW,5.8,-,N/A,,Clear,310,2012-12-07 16:53:00
11:13 AM,19.4,15.8,86,30.04,10.0,NW,4.6,-,N/A,,Clear,310,2012-12-07 17:13:00
11:33 AM,19.4,15.8,86,30.04,10.0,WNW,4.6,-,N/A,,Mostly Cloudy,290,2012-12-07 17:33:00
11:54 AM,19.4,14.0,80,30.04,10.0,NW,3.5,-,N/A,,Overcast,310,2012-12-07 17:54:00
12:13 PM,19.4,15.8,86,30.04,10.0,West,4.6,-,N/A,,Overcast,270,2012-12-07 18:13:00
12:33 PM,21.2,15.8,80,30.03,10.0,West,3.5,-,N/A,,Overcast,280,2012-12-07 18:33:00
12:54 PM,21.2,15.8,80,30.03,10.0,WNW,3.5,-,N/A,,Overcast,300,2012-12-07 18:54:00
1:13 PM,21.2,15.8,80,30.03,10.0,WNW,4.6,-,N/A,,Overcast,300,2012-12-07 19:13:00
1:33 PM,21.2,15.8,80,30.03,10.0,NW,3.5,-,N/A,,Overcast,320,2012-12-07 19:33:00
1:54 PM,21.2,15.8,80,30.02,10.0,North,3.5,-,N/A,,Overcast,350,2012-12-07 19:54:00
2:13 PM,21.2,15.8,80,30.01,10.0,Calm,Calm,-,N/A,,Mostly Cloudy,0,2012-12-07 20:13:00
2:34 PM,21.2,14.0,74,30.01,10.0,NNW,3.5,-,N/A,,Scattered Clouds,340,2012-12-07 20:34:00
3:13 PM,21.2,15.8,80,30.01,10.0,North,3.5,-,N/A,,Scattered Clouds,10,2012-12-07 21:13:00
3:34 PM,21.2,14.0,74,30.02,10.0,Calm,Calm,-,N/A,,Scattered Clouds,0,2012-12-07 21:34:00
3:54 PM,21.2,14.0,74,30.02,10.0,NNE,3.5,-,N/A,,Mostly Cloudy,30,2012-12-07 21:54:00
4:13 PM,21.2,14.0,74,30.02,10.0,NNE,4.6,-,N/A,,Overcast,20,2012-12-07 22:13:00
4:34 PM,21.2,14.0,74,30.02,10.0,NNE,3.5,-,N/A,,Overcast,30,2012-12-07 22:34:00
4:54 PM,21.2,14.0,74,30.02,10.0,Calm,Calm,-,N/A,,Overcast,0,2012-12-07 22:54:00
5:13 PM,21.2,15.8,80,30.02,10.0,Calm,Calm,-,N/A,,Overcast,0,2012-12-07 23:13:00
5:34 PM,19.4,15.8,86,30.02,4.0,ENE,3.5,-,N/A,Snow,Light Snow,60,2012-12-07 23:34:00
5:53 PM,19.4,15.8,86,30.02,5.0,Calm,Calm,-,N/A,Snow,Light Snow,0,2012-12-07 23:53:00
6:14 PM,19.4,15.8,86,30.02,10.0,Calm,Calm,-,N/A,,Overcast,0,2012-12-08 00:14:00
6:34 PM,19.4,15.8,86,30.03,10.0,Calm,Calm,-,N/A,,Overcast,0,2012-12-08 00:34:00
7:14 PM,19.4,14.0,80,30.03,10.0,Calm,Calm,-,N/A,,Overcast,0,2012-12-08 01:14:00
7:34 PM,17.6,12.2,79,30.03,10.0,Calm,Calm,-,N/A,,Overcast,0,2012-12-08 01:34:00
7:53 PM,17.6,12.2,79,30.04,10.0,Calm,Calm,-,N/A,,Overcast,0,2012-12-08 01:53:00
8:34 PM,17.6,12.2,79,30.04,10.0,NE,3.5,-,N/A,,Overcast,40,2012-12-08 02:34:00
8:53 PM,17.6,12.2,79,30.03,10.0,NE,3.5,-,N/A,,Overcast,50,2012-12-08 02:53:00
9:13 PM,17.6,12.2,79,30.03,10.0,NE,4.6,-,N/A,,Overcast,50,2012-12-08 03:13:00
9:34 PM,17.6,12.2,79,30.04,10.0,ENE,3.5,-,N/A,,Overcast,60,2012-12-08 03:34:00
9:53 PM,17.6,12.2,79,30.03,10.0,Calm,Calm,-,N/A,Snow,Light Snow,0,2012-12-08 03:53:00
10:13 PM,17.6,12.2,79,30.03,7.0,Calm,Calm,-,N/A,Snow,Light Snow,0,2012-12-08 04:13:00
10:34 PM,17.6,12.2,79,30.03,4.0,Calm,Calm,-,N/A,Snow,Light Snow,0,2012-12-08 04:34:00
10:53 PM,17.6,12.2,79,30.03,7.0,ENE,4.6,-,N/A,Snow,Light Snow,60,2012-12-08 04:53:00
11:13 PM,17.6,12.2,79,30.03,7.0,ENE,3.5,-,N/A,Snow,Light Snow,60,2012-12-08 05:13:00
11:34 PM,17.6,12.2,79,30.03,7.0,Calm,Calm,-,N/A,Snow,Light Snow,0,2012-12-08 05:34:00
11:53 PM,17.6,14.0,86,30.03,5.0,Calm,Calm,-,N/A,Snow,Light Snow,0,2012-12-08 05:53:00